Regional Weather Roundup
Issued by NWS Newport/Morehead, NC

Current Version | Previous Version | Graphics & Text | Print | Product List | Glossary Off
Versions: 1 2 3 4 5 6 7 8 9 10 11 12 13 14 15 16 17 18 19 20 21 22 23 24 25 26 27 28 29 30 31 32 33 34 35 36 37 38 39 40 41 42 43 44 45 46 47 48 49 50

000
ASUS42 KMHX 032013
RWRMHX
WEATHER ROUNDUP FOR EASTERN NORTH CAROLINA
NATIONAL WEATHER SERVICE NEWPORT/MOREHEAD CITY NC
400 PM EDT FRI JUL 03 2015

NOTE: "FAIR" INDICATES FEW OR NO CLOUDS BELOW 12,000 FEET
WITH NO SIGNIFICANT WEATHER AND/OR OBSTRUCTIONS TO VISIBILITY

NCZ015>017-031-032-045>047-102-103-032100-
NORTH COAST

CITY           SKY/WX    TMP DP  RH WIND       PRES   REMARKS
EDENTON          N/A     82  72  71 E6        29.93F
ELIZABETH CITY PTSUNNY   84  70  62 E8        29.94F
KITTY HAWK     CLEAR     84  70  63 E6        29.95S
MANTEO         PTSUNNY   78  70  77 E9        29.96S

$$

NCZ045>047-081-094-103-104-032100-
CENTRAL COAST

CITY           SKY/WX    TMP DP  RH WIND       PRES   REMARKS
FRISCO         MOSUNNY   82  71  69 S5        29.97S
SWANQUARTER      N/A     84 N/A N/A SE10      29.88F

$$

NCZ095-097-098-100-101-032100-
SOUTHERN COAST

CITY           SKY/WX    TMP DP  RH WIND       PRES   REMARKS
BEAUFORT       PTSUNNY   83  75  77 SW20      29.94F
CEDAR ISLAND     N/A     86 N/A N/A S7G16     29.97S
JACKSONVILLE   NOT AVBL
PINEY ISLAND   PTCLDY   N/A N/A N/A S13       29.93F
WILMINGTON     CLOUDY    78  73  84 VRB3      29.93F


$$

NCZ011>013-027>030-043-044-078>080-089-090>093-098-032100-
COASTAL PLAIN

CITY           SKY/WX    TMP DP  RH WIND       PRES   REMARKS
AHOSKIE        RAIN      80  71  73 S6        29.92F
CLINTON        CLOUDY    82  75  79 S3        29.91F
ELIZABETHTOWN  PTSUNNY   80  73  77 SW7       29.93F
GOLDSBORO      LGT RAIN  79  73  83 SW3       29.89F
GREENVILLE     PTSUNNY   84  72  65 SW8       29.93F
HAVELOCK       RAIN      84  74  71 SW8       29.93F
KENANSVILLE    CLOUDY    81  71  72 S3        29.93F
KINSTON        MOSUNNY   81  72  74 CALM      29.91F
NEW BERN       LGT RAIN  78  74  87 NE3       29.94F
RICHLANDS      PTSUNNY   86  70  58 S14       29.92F
ROCKY MOUNT    PTSUNNY   81  71  71 S9        29.91F
WASHINGTON     MOSUNNY   83  71  68 CALM      29.92F
WHITEVILLE     PTSUNNY   83  76  77 SW5       29.91F

$$

AMZ130-135-150-152-154-156-158-170-250-252-270-ANZ085-086-088-633-658-670-032100-
MARINE OBSERVATIONS

STATION/POSITION TIME  TEMP    WIND        PRES    WAVE   SWELL
                       AIR SEA DIR/SP/G            HT/PER HT/PER
                 (UTC) (F)     (DEG/KT/KT) (MB)    (FT/S) (FT/S)
CHESAPEAKE LIGHT 2000   74      90/  8/  9 1015.3
64 E VA BEACH    1950   76 79   60/  6/  8 1014.4    4/ 7   3/ 7
DUCK             1900   78 76   70/  8/  9 1013.7
2 E DUCK         1911      77                N/A     2/15
OREGON INLET     1900   77 73   60/  7/  9 1014.4
13E OREGON INLT  2000      71                N/A     4/ 7
HATTERAS CG      1900   80 78  170/  6/  8 1014.5
DIAMOND BUOY     1950   80 81  220/ 12/ 14 1014.7    5/ 7   3/ 7
CAPE LOOKOUT     2000   81     220/ 11/ 13 1013.9
BEAUFORT LAB     1900   81 81  220/  9/ 12 1013.8
30 SE NEW RVR IN 1908   80 80  240/ 17/ 21 1015.4
27 SE WRIGHTSVLE 1900      80  240/ 17/ 21   N/A
5 SE WRIGHTSVLE  1908   79 80  210/ 17/ 25 1014.2
225 S CAPE HAT   1950   81 81  240/ 12/ 16 1018.6    6/ 7   5/ 7
41 SE CHARLESTON 1950   81 82  220/ 19/ 23 1015.4    5/ 5   2/ 9

$$



USA.gov is the U.S. government's official web portal to all federal, state and local government web resources and services.